SCP
-0 -0 -0 -0 -0 -0 -0 -0 -0 -0 -0 -0 -0 -0 -0 0 0 0 0 0 0 0 0 0 0 0 0 0 0 0 0 0 0
-0 -0 -0 -0 0 0 0 0 0 0 0 -0 -0 -0 0 0 0 0 0 0 0 0 0 0 0 0 0 0 0 0 0 0 0
0 -0 -0 -0 0 0 0 0 0 0 0 0 0 0 0 0 0 0 0 0 0 0 0 0 0 0 0 0 0 0 0 0 0
0 0 0 0 0 0 0 1 0 0 0 0 0 0 0 0 0 0 0 0 0 0 0 0 0 0 0 0 -0 0 0 0 0
0 0 0 0 0 0 0 0 0 0 0 0 -0 -0 0 0 0 0 0 0 0 0 0 0 0 0 0 0 0 0 0 0 0
0 0 0 0 0 0 0 0 0 0 0 0 0 0 0 0 0 0 0 0 0 0 0 0 0 0 0 0 0 0 0 0 0
0 0 0 0 0 0 0 0 0 0 0 0 0 -0 0 0 0 -0 -0 0 0 0 0 0 0 0 0 0 0 0 0 0 0
0 0 0 0 0 0 0 0 0 0 -0 0 0 0 0 -0 0 0 0 0 0 0 0 0 0 0 0 0 0 0 0 0 0
0 0 0 0 0 0 0 0 0 0 0 0 0 -0 -0 -0 -0 0 -0 -0 0 0 1 1 1 1 0 0 0 0 0 0 0
0 0 0 0 0 0 0 0 0 0 0 0 0 0 -0 -0 -0 -0 -0 -0 -0 0 1 1 1 1 1 0 0 0 0 0 0
0 0 0 0 0 0 0 0 0 0 0 0 0 0 0 0 -0 -0 -0 -0 -0 -0 -0 1 1 1 1 1 0 0 0 0 0
0 0 0 0 0 0 0 0 0 0 0 0 0 0 0 0 0 0 -0 -1 -0 -0 -1 1 3 3 2 1 1 0 0 0 0
0 0 0 0 0 0 0 0 0 0 0 0 0 0 0 0 0 0 0 -0 -0 -0 -3 -0 3 4 3 2 1 0 0 0 0
0 0 0 0 0 0 0 0 0 0 0 0 0 0 0 0 0 0 0 0 0 0 0 3 4 4 3 1 0 0 0 0 0
0 0 0 0 0 0 0 0 0 0 0 0 0 0 0 0 -0 -0 0 0 0 0 0 0 0 8 1 0 0 0 0 0 0
0 0 0 0 0 0 0 0 0 0 0 0 0 0 0 0 0 -0 -0 -0 0 -0 -0 0 0 0 0 0 0 0 0 0 0
0 0 0 0 0 0 0 0 0 0 0 0 0 0 0 0 0 0 -0 0 -0 -0 0 0 0 0 0 0 -0 0 0 0 -0
0 0 0 0 0 0 0 0 0 0 0 0 0 0 0 0 0 0 0 -0 -0 0 0 0 0 0 0 0 0 0 0 0 0
0 0 0 0 0 0 0 0 0 0 0 0 0 0 0 0 0 0 0 0 0 0 0 -0 -0 0 0 0 0 0 -0 0 0
0 0 0 0 0 0 0 0 0 0 0 0 0 0 0 0 0 0 0 0 0 0 0 0 0 0 -0 -0 0 0 0 0 0
Wind_Speed_500mb
82 88 59 29 48 55 57 65 65 64 62 64 63 67 72 71 71 70 65 59 58 49 48 45 48 50 47 47 45 39 42 47 44
79 85 71 39 15 36 45 58 63 62 59 60 60 60 69 72 72 72 69 64 58 49 50 46 47 50 52 50 50 49 45 47 50
70 75 66 45 19 13 31 46 53 53 55 56 61 61 64 71 70 68 69 68 60 58 53 47 48 50 53 54 53 50 50 50 47
59 72 66 52 31 10 10 27 34 40 44 48 52 56 60 65 72 70 70 73 68 64 57 52 52 51 50 55 53 54 56 55 52
55 63 64 53 44 26 8 11 17 21 15 24 34 41 42 47 54 62 62 64 67 70 68 61 56 57 54 54 52 50 48 57 61
63 66 65 64 49 34 28 18 17 20 21 23 3 18 26 38 46 51 50 51 54 59 64 66 61 61 63 57 55 56 55 50 46
53 61 60 59 65 50 28 2 11 2 21 47 49 29 24 23 23 29 35 40 45 49 51 58 62 62 64 62 53 48 50 51 50
53 55 53 51 53 54 56 52 29 34 33 37 64 74 75 56 51 61 57 54 47 45 50 44 51 61 61 59 54 49 46 47 44
47 48 47 50 46 48 51 49 40 31 15 19 36 56 73 78 73 77 83 55 47 50 49 58 49 55 62 61 59 49 45 48 49
40 46 46 46 47 43 40 34 37 34 33 33 29 30 36 68 74 79 81 56 62 59 57 56 62 53 59 63 61 52 46 49 55
47 52 55 54 48 45 41 35 31 33 32 32 40 40 40 46 50 62 62 68 72 68 71 73 71 60 60 62 58 53 48 45 49
58 62 63 62 57 54 46 41 42 36 36 37 36 37 44 49 56 56 62 64 76 74 67 75 82 66 65 71 62 58 52 51 52
64 60 60 64 63 56 53 46 42 45 40 37 36 41 47 48 49 55 51 52 52 52 59 68 75 75 61 73 74 68 60 62 58
67 66 65 60 58 59 53 49 47 46 42 37 33 35 39 40 44 45 54 44 35 41 40 38 53 64 59 74 80 76 69 67 59
58 59 64 61 58 56 54 46 45 47 47 43 39 35 28 34 42 35 45 43 47 41 42 53 21 14 56 86 81 75 72 64 50
64 60 58 57 55 57 58 53 51 52 48 48 44 40 32 28 36 38 30 24 38 36 23 28 45 36 30 73 92 81 71 66 66
63 59 58 61 60 64 69 58 52 54 53 46 44 42 36 26 28 31 31 26 31 36 25 15 20 25 56 91 99 69 55 67 80
53 53 54 55 58 66 68 63 56 48 47 46 41 37 36 28 23 22 28 29 29 31 33 31 22 8 14 32 38 26 35 45 40
51 50 50 50 51 55 60 63 56 43 35 36 31 31 33 24 24 21 23 19 19 20 17 9 5 1 3 13 29 38 47 51 42
50 49 48 48 54 54 54 47 46 38 34 28 21 21 24 30 29 32 25 20 16 20 17 8 6 10 17 16 13 12 23 33 35
Wind_Direction_500mb
9 13 5 269 246 239 233 234 230 231 229 230 235 237 236 237 237 239 242 244 245 249 251 255 250 245 247 248 248 251 251 250 253
7 11 21 24 260 241 244 245 237 238 236 236 237 242 243 242 243 243 246 248 249 250 253 257 252 246 247 248 247 245 246 250 251
1 11 28 34 37 293 240 244 242 241 244 245 247 246 248 250 250 250 252 254 252 249 251 249 250 248 251 249 247 244 247 249 251
2 15 28 35 43 72 223 244 248 244 245 250 250 250 252 254 254 255 255 258 258 255 255 255 250 246 247 250 251 249 244 246 247
17 29 35 40 45 60 99 239 233 217 229 256 264 265 258 265 267 263 263 262 260 261 259 257 251 247 246 246 254 253 251 249 247
17 19 25 33 39 45 62 89 121 150 130 70 32 265 266 263 265 261 259 264 269 269 264 262 262 254 247 246 246 256 255 253 255
20 27 20 28 30 26 22 178 132 240 290 288 293 322 331 329 321 313 301 280 269 260 264 266 261 257 256 249 246 249 252 248 243
8 15 20 10 3 3 6 2 320 287 256 240 225 270 280 288 291 292 284 286 293 301 271 261 263 257 252 248 242 241 242 241 242
357 0 359 358 359 354 355 358 357 343 336 260 270 281 259 285 291 284 285 279 283 285 291 266 256 256 249 243 238 236 237 234 238
349 347 351 353 356 353 343 346 350 351 343 336 320 301 291 281 287 285 283 290 283 285 290 274 256 250 250 243 238 236 232 233 235
333 329 326 327 330 333 340 331 320 322 329 332 332 321 327 320 312 286 296 290 296 290 282 279 256 243 244 242 236 231 229 231 237
317 319 315 312 314 315 315 320 320 312 314 320 327 332 327 328 328 316 299 299 290 292 275 267 256 237 234 239 234 227 224 225 229
314 315 313 312 308 308 300 301 310 311 315 315 321 320 327 332 329 317 318 328 304 273 254 254 246 237 229 235 232 228 222 222 226
312 311 311 308 307 306 306 299 297 297 304 316 320 309 322 325 327 324 322 288 340 276 240 241 243 232 239 239 227 225 221 224 225
317 317 314 311 310 307 302 300 299 294 291 298 305 313 310 335 329 315 323 279 294 313 270 243 229 200 272 245 232 220 218 222 222
323 321 320 320 315 310 302 297 295 296 289 291 296 299 301 318 329 329 331 303 289 315 307 253 252 254 230 284 235 218 214 212 210
319 318 318 320 317 312 309 306 297 289 289 291 290 288 291 293 314 330 336 332 330 335 350 14 331 262 247 288 252 212 207 207 216
319 322 321 318 314 313 312 312 307 300 288 290 287 279 280 283 285 317 314 357 342 353 347 335 4 339 221 248 209 182 186 200 215
326 327 328 326 321 317 317 317 317 315 307 295 285 275 272 284 259 285 306 311 336 321 340 317 330 295 255 231 213 206 208 211 244
331 332 330 329 322 317 319 314 318 327 316 296 282 271 266 268 275 276 279 292 310 313 282 305 323 307 233 194 231 252 241 237 236
Wind_Speed_850mb
82 88 59 29 48 55 57 65 65 64 62 64 63 67 72 71 71 70 65 59 58 49 48 45 48 50 47 47 45 39 42 47 44
79 85 71 39 15 36 45 58 63 62 59 60 60 60 69 72 72 72 69 64 58 49 50 46 47 50 52 50 50 49 45 47 50
70 75 66 45 19 13 31 46 53 53 55 56 61 61 64 71 70 68 69 68 60 58 53 47 48 50 53 54 53 50 50 50 47
59 72 66 52 31 10 10 27 34 40 44 48 52 56 60 65 72 70 70 73 68 64 57 52 52 51 50 55 53 54 56 55 52
55 63 64 53 44 26 8 11 17 21 15 24 34 41 42 47 54 62 62 64 67 70 68 61 56 57 54 54 52 50 48 57 61
63 66 65 64 49 34 28 18 17 20 21 23 3 18 26 38 46 51 50 51 54 59 64 66 61 61 63 57 55 56 55 50 46
53 61 60 59 65 50 28 2 11 2 21 47 49 29 24 23 23 29 35 40 45 49 51 58 62 62 64 62 53 48 50 51 50
53 55 53 51 53 54 56 52 29 34 33 37 64 74 75 56 51 61 57 54 47 45 50 44 51 61 61 59 54 49 46 47 44
47 48 47 50 46 48 51 49 40 31 15 19 36 56 73 78 73 77 83 55 47 50 49 58 49 55 62 61 59 49 45 48 49
40 46 46 46 47 43 40 34 37 34 33 33 29 30 36 68 74 79 81 56 62 59 57 56 62 53 59 63 61 52 46 49 55
47 52 55 54 48 45 41 35 31 33 32 32 40 40 40 46 50 62 62 68 72 68 71 73 71 60 60 62 58 53 48 45 49
58 62 63 62 57 54 46 41 42 36 36 37 36 37 44 49 56 56 62 64 76 74 67 75 82 66 65 71 62 58 52 51 52
64 60 60 64 63 56 53 46 42 45 40 37 36 41 47 48 49 55 51 52 52 52 59 68 75 75 61 73 74 68 60 62 58
67 66 65 60 58 59 53 49 47 46 42 37 33 35 39 40 44 45 54 44 35 41 40 38 53 64 59 74 80 76 69 67 59
58 59 64 61 58 56 54 46 45 47 47 43 39 35 28 34 42 35 45 43 47 41 42 53 21 14 56 86 81 75 72 64 50
64 60 58 57 55 57 58 53 51 52 48 48 44 40 32 28 36 38 30 24 38 36 23 28 45 36 30 73 92 81 71 66 66
63 59 58 61 60 64 69 58 52 54 53 46 44 42 36 26 28 31 31 26 31 36 25 15 20 25 56 91 99 69 55 67 80
53 53 54 55 58 66 68 63 56 48 47 46 41 37 36 28 23 22 28 29 29 31 33 31 22 8 14 32 38 26 35 45 40
51 50 50 50 51 55 60 63 56 43 35 36 31 31 33 24 24 21 23 19 19 20 17 9 5 1 3 13 29 38 47 51 42
50 49 48 48 54 54 54 47 46 38 34 28 21 21 24 30 29 32 25 20 16 20 17 8 6 10 17 16 13 12 23 33 35
Wind_Direction_850mb
9 13 5 269 246 239 233 234 230 231 229 230 235 237 236 237 237 239 242 244 245 249 251 255 250 245 247 248 248 251 251 250 253
7 11 21 24 260 241 244 245 237 238 236 236 237 242 243 242 243 243 246 248 249 250 253 257 252 246 247 248 247 245 246 250 251
1 11 28 34 37 293 240 244 242 241 244 245 247 246 248 250 250 250 252 254 252 249 251 249 250 248 251 249 247 244 247 249 251
2 15 28 35 43 72 223 244 248 244 245 250 250 250 252 254 254 255 255 258 258 255 255 255 250 246 247 250 251 249 244 246 247
17 29 35 40 45 60 99 239 233 217 229 256 264 265 258 265 267 263 263 262 260 261 259 257 251 247 246 246 254 253 251 249 247
17 19 25 33 39 45 62 89 121 150 130 70 32 265 266 263 265 261 259 264 269 269 264 262 262 254 247 246 246 256 255 253 255
20 27 20 28 30 26 22 178 132 240 290 288 293 322 331 329 321 313 301 280 269 260 264 266 261 257 256 249 246 249 252 248 243
8 15 20 10 3 3 6 2 320 287 256 240 225 270 280 288 291 292 284 286 293 301 271 261 263 257 252 248 242 241 242 241 242
357 0 359 358 359 354 355 358 357 343 336 260 270 281 259 285 291 284 285 279 283 285 291 266 256 256 249 243 238 236 237 234 238
349 347 351 353 356 353 343 346 350 351 343 336 320 301 291 281 287 285 283 290 283 285 290 274 256 250 250 243 238 236 232 233 235
333 329 326 327 330 333 340 331 320 322 329 332 332 321 327 320 312 286 296 290 296 290 282 279 256 243 244 242 236 231 229 231 237
317 319 315 312 314 315 315 320 320 312 314 320 327 332 327 328 328 316 299 299 290 292 275 267 256 237 234 239 234 227 224 225 229
314 315 313 312 308 308 300 301 310 311 315 315 321 320 327 332 329 317 318 328 304 273 254 254 246 237 229 235 232 228 222 222 226
312 311 311 308 307 306 306 299 297 297 304 316 320 309 322 325 327 324 322 288 340 276 240 241 243 232 239 239 227 225 221 224 225
317 317 314 311 310 307 302 300 299 294 291 298 305 313 310 335 329 315 323 279 294 313 270 243 229 200 272 245 232 220 218 222 222
323 321 320 320 315 310 302 297 295 296 289 291 296 299 301 318 329 329 331 303 289 315 307 253 252 254 230 284 235 218 214 212 210
319 318 318 320 317 312 309 306 297 289 289 291 290 288 291 293 314 330 336 332 330 335 350 14 331 262 247 288 252 212 207 207 216
319 322 321 318 314 313 312 312 307 300 288 290 287 279 280 283 285 317 314 357 342 353 347 335 4 339 221 248 209 182 186 200 215
326 327 328 326 321 317 317 317 317 315 307 295 285 275 272 284 259 285 306 311 336 321 340 317 330 295 255 231 213 206 208 211 244
331 332 330 329 322 317 319 314 318 327 316 296 282 271 266 268 275 276 279 292 310 313 282 305 323 307 233 194 231 252 241 237 236